Location: Mentone
(34.5413°N, 85.5351°W)
Time: 17:23:22
(UTC-06:00)

Vanguard 3 - All Passes

Search period start: 19 February 2017 00:00
Search period end: 01 March 2017 00:00
Orbit: 508 x 3266 km, 33.4° (Epoch: 18 February)

Date Brightness Start Highest point End Pass type
(mag) Time Alt. Az. Time Alt. Az. Time Alt. Az.
19 Feb - 04:12:07 10° SSW 04:20:14 41° SE 04:33:43 10° E visible
19 Feb - 06:22:18 10° WSW 06:33:43 79° SSE 06:52:31 10° E daylight
19 Feb - 08:34:58 10° W 08:50:13 85° S 09:10:36 10° ESE daylight
19 Feb - 10:49:21 10° WNW 11:07:24 64° SSW 11:26:00 10° SE daylight
19 Feb - 13:06:42 10° W 13:22:40 32° SW 13:36:38 10° SSE daylight
20 Feb - 03:00:57 10° S 03:06:49 23° SE 03:15:23 10° E visible
20 Feb - 05:09:10 10° SW 05:18:30 64° SSE 05:34:49 10° E visible
20 Feb - 07:20:44 10° W 07:33:36 86° S 07:53:25 10° E daylight
20 Feb - 09:34:05 10° W 09:50:36 76° SSW 10:10:35 10° ESE daylight
20 Feb - 11:49:25 10° W 12:06:58 46° SW 12:23:47 10° SSE daylight
20 Feb - 14:11:16 10° W 14:20:58 16° SW 14:29:46 10° SSW daylight
21 Feb - 03:56:46 10° SW 04:04:16 44° SE 04:17:07 10° E visible
21 Feb - 06:07:04 10° WSW 06:17:40 81° SSE 06:35:47 10° E daylight
21 Feb - 08:19:29 10° W 08:33:48 83° S 08:54:03 10° ESE daylight
21 Feb - 10:33:29 10° W 10:50:38 60° SSW 11:09:32 10° SE daylight
21 Feb - 12:50:53 10° W 13:05:53 28° SW 13:19:47 10° S daylight
22 Feb - 02:45:22 10° S 02:50:56 25° SE 02:59:15 10° E visible
22 Feb - 04:53:58 10° WSW 05:02:36 68° SSE 05:18:05 10° E visible
22 Feb - 07:05:27 10° W 07:17:26 86° S 07:36:45 10° E daylight
22 Feb - 09:18:26 10° W 09:34:00 72° SSW 09:54:01 10° ESE daylight
22 Feb - 11:33:33 10° W 11:50:10 42° SW 12:07:06 10° SSE daylight
22 Feb - 13:56:58 10° WSW 14:04:22 13° SW 14:11:24 10° SSW daylight
23 Feb - 03:41:31 10° SW 03:48:26 48° SSE 04:00:34 10° E visible
23 Feb - 05:51:55 10° WSW 06:01:44 83° S 06:19:02 10° E visible
23 Feb - 08:04:04 10° W 08:17:28 81° SSW 08:37:25 10° ESE daylight
23 Feb - 10:17:45 10° W 10:33:55 55° SSW 10:52:51 10° SE daylight
23 Feb - 12:35:21 10° W 12:49:08 25° SW 13:02:36 10° S daylight
24 Feb - 02:29:55 10° SSW 02:35:09 27° SE 02:43:08 10° E visible
24 Feb - 04:38:53 10° WSW 04:46:49 72° SSE 05:01:23 10° E visible
24 Feb - 06:50:14 10° W 07:01:22 85° S 07:20:01 10° E daylight
24 Feb - 09:02:54 10° W 09:17:29 67° SSW 09:37:18 10° SE daylight
24 Feb - 11:17:53 10° W 11:33:24 37° SW 11:50:09 10° SSE daylight
24 Feb - 13:45:07 10° WSW 13:47:50 10° SW 13:50:31 10° SW daylight
25 Feb - 01:21:17 10° SE 01:22:26 10° SE 01:23:39 10° ESE visible
25 Feb - 03:26:22 10° SW 03:32:45 51° SSE 03:44:05 10° E visible
25 Feb - 05:36:49 10° W 05:45:54 84° S 06:02:18 10° E visible
25 Feb - 07:48:43 10° W 08:01:13 77° SSW 08:20:40 10° ESE daylight
25 Feb - 10:02:08 10° W 10:17:16 50° SSW 10:35:57 10° SE daylight
25 Feb - 12:20:12 10° W 12:32:28 21° SW 12:44:58 10° S daylight
26 Feb - 02:14:36 10° SSW 02:19:28 29° SE 02:27:03 10° E visible
26 Feb - 04:23:50 10° WSW 04:31:10 75° SSE 04:44:44 10° E visible
26 Feb - 06:35:04 10° W 06:45:23 84° S 07:03:15 10° ESE daylight
26 Feb - 08:47:28 10° W 09:01:02 62° SSW 09:20:25 10° SE daylight
26 Feb - 11:02:25 10° W 11:16:44 33° SW 11:32:53 10° SSE daylight
27 Feb - 01:04:47 10° SSE 01:06:45 12° SE 01:09:01 10° ESE visible
27 Feb - 03:11:17 10° SW 03:17:11 55° SSE 03:27:40 10° E visible
27 Feb - 05:21:47 10° W 05:30:10 85° S 05:45:35 10° E visible
27 Feb - 07:33:27 10° W 07:45:02 73° SSW 08:03:48 10° ESE daylight
27 Feb - 09:46:42 10° W 10:00:43 45° SSW 10:18:49 10° SSE daylight
27 Feb - 12:05:36 10° WSW 12:15:55 17° SW 12:26:44 10° S daylight
28 Feb - 01:59:21 10° SSW 02:03:55 32° SE 02:11:02 10° E visible
28 Feb - 04:08:51 10° WSW 04:15:37 78° SSE 04:28:10 10° E visible
28 Feb - 06:19:57 10° W 06:29:30 81° S 06:46:27 10° ESE daylight
28 Feb - 08:32:07 10° W 08:44:42 57° SSW 09:03:21 10° SE daylight
28 Feb - 10:47:15 10° W 11:00:11 28° SW 11:15:18 10° SSE daylight
